[[{"header":{"parameterUnit":"m.s-1","parameterCategory":1,"la1":30.2991,"la2":30.254,"lo1":-89.0895,"lo2":-89.0444,"dy":0.0017,"dx":0.0017,"nx":28,"ny":28,"refTime":"2023-08-08T09:00:00:Z","depth":0,"parameterNumber":2,"parameterNumberName":"U-component_of_WINDS"},"data":[0,0,0,0,0,0,0,0,0,0,0,0,0,0,0,0,0,0,0,0,0,0,0,0,0,0,0,0,0,0,0,0,0,0,0,0,0,0,0,0,0,0,0,0,0,0,0,0,0,0,0,0,0,0,0,0,0,0,-0.0585,-0.0584,0,-0.05,-0.0499,-0.0498,-0.0454,-0.0454,-0.0454,-0.0454,-0.0364,-0.0362,-0.036,0,0,0,0,0,0,0,0,0,0,0,0,0,-0.0709,-0.0707,-0.0585,-0.0584,-0.0583,-0.05,-0.0499,-0.0497,-0.0454,-0.0454,-0.0454,-0.0454,-0.0365,-0.0362,-0.036,0,0,0,0,0,0,0,0,0,0,0,0,0,-0.0643,-0.0706,-0.0585,-0.0551,-0.0548,-0.05,-0.0498,-0.0497,-0.0454,-0.0454,-0.0454,-0.0454,-0.0366,-0.0363,-0.0359,-0.0338,0,0,-0.0348,-0.0347,0,0,0,0,0,0,0,0,-0.0646,-0.0638,-0.0557,-0.0554,-0.0549,-0.0488,-0.0509,-0.0443,-0.0454,-0.049,-0.0454,-0.0454,-0.0405,-0.0398,-0.0382,-0.0333,-0.033,-0.0348,-0.0346,-0.0344,-0.0343,0,0,0,0,0,0,0,-0.0651,-0.0641,-0.0551,-0.0556,-0.0551,-0.054,-0.0531,-0.0497,-0.0449,-0.0487,-0.0483,-0.0474,-0.0403,-0.0386,-0.038,-0.0328,-0.0348,-0.0345,-0.0343,-0.0341,-0.0258,-0.0257,0,0,0,0,0,0,-0.0661,-0.0646,-0.0554,-0.0548,-0.0599,-0.0538,-0.0527,-0.0507,-0.0449,-0.044,-0.0474,-0.0472,-0.0392,-0.0384,-0.0377,-0.0348,-0.0344,-0.0341,-0.0339,-0.0258,-0.0258,-0.0257,0,0,0,0,0,0,-0.0664,-0.0654,-0.0557,-0.0596,-0.0583,-0.0536,-0.0514,-0.0506,-0.0489,-0.0439,-0.043,-0.0466,-0.0392,-0.0382,-0.0348,-0.0344,-0.0339,-0.0336,-0.0258,-0.0258,-0.0257,-0.029,0,0,0,0,0,0,-0.0668,-0.0655,-0.0647,-0.0596,-0.0581,-0.0531,-0.0514,-0.0504,-0.0483,-0.048,-0.0429,-0.0421,-0.0391,-0.0354,-0.0344,-0.0339,-0.0333,-0.0258,-0.0258,-0.0258,-0.0289,-0.0291,-0.0293,0,0,0,0,0,-0.0673,-0.0659,-0.0646,-0.0636,-0.057,-0.053,-0.0522,-0.0489,-0.0483,-0.0474,-0.0442,-0.0422,-0.0346,-0.035,-0.034,-0.0333,-0.0258,-0.0258,-0.0258,-0.0288,-0.029,-0.0293,0,0,0,0,0,0,-0.0709,-0.0651,-0.0637,-0.0607,-0.0574,-0.0523,-0.0511,-0.0492,-0.046,-0.0458,-0.0417,-0.0406,-0.0376,-0.0351,-0.0357,-0.031,-0.03,-0.0298,-0.0327,-0.0329,-0.0331,-0.0337,-0.033,0,0,0,0,0,-0.0713,-0.0687,-0.0638,-0.0615,-0.06,-0.0559,-0.054,-0.0518,-0.0481,-0.0467,-0.0433,-0.0398,-0.0366,-0.0346,-0.0314,-0.0285,-0.0273,-0.0276,-0.0278,-0.0279,-0.0278,-0.026,-0.0261,-0.0257,-0.0257,-0.0257,0,0,-0.0722,-0.0688,-0.0673,-0.0622,-0.0594,-0.0567,-0.0547,-0.0519,-0.0498,-0.0462,-0.0429,-0.0403,-0.0361,-0.033,-0.0314,-0.0308,-0.0276,-0.0279,-0.0281,-0.0278,-0.026,-0.0261,-0.0261,-0.0257,-0.0257,-0.0257,0,0,-0.0725,-0.0696,-0.0674,-0.0647,-0.0605,-0.0578,-0.0573,-0.0525,-0.0506,-0.0472,-0.0445,-0.0419,-0.0366,-0.0337,-0.0316,-0.0308,-0.0289,-0.0299,-0.0308,-0.0292,-0.0292,-0.0292,-0.029,-0.0289,-0.0298,-0.0298,-0.0298,0,-0.0741,-0.0699,-0.0665,-0.0639,-0.0617,-0.0585,-0.0562,-0.0537,-0.0487,-0.0472,-0.0466,-0.0399,-0.0368,-0.033,-0.0328,-0.0312,-0.0305,-0.0304,-0.0295,-0.0295,-0.0294,-0.0291,-0.029,-0.0299,-0.0299,-0.0299,-0.0299,0,-0.0721,-0.0693,-0.068,-0.0633,-0.061,-0.0586,-0.0548,-0.0529,-0.0508,-0.0482,-0.0447,-0.041,-0.037,-0.0359,-0.0339,-0.0318,-0.0316,-0.0303,-0.0293,-0.0297,-0.0293,-0.0292,-0.0301,-0.0301,-0.03,-0.03,0,0,-0.0743,-0.0679,-0.0675,-0.0653,-0.0605,-0.0582,-0.0556,-0.0518,-0.0502,-0.0468,-0.0446,-0.0401,-0.039,-0.0365,-0.0341,-0.0327,-0.0324,-0.0316,-0.0315,-0.0319,-0.0299,-0.0308,-0.0307,-0.0311,-0.031,-0.031,-0.0302,0,-0.0739,-0.0692,-0.0661,-0.0626,-0.0599,-0.0568,-0.0546,-0.0514,-0.0488,-0.0461,-0.0433,-0.0402,-0.0389,-0.0374,-0.0359,-0.0328,-0.0319,-0.0328,-0.0288,-0.0288,-0.03,-0.0305,-0.0315,-0.0309,-0.03,-0.03,-0.03,0,-0.0727,-0.0695,-0.0658,-0.0613,-0.06,-0.0581,-0.0543,-0.0519,-0.0481,-0.0464,-0.0437,-0.0413,-0.0384,-0.0377,-0.0336,-0.0343,-0.0325,-0.0308,-0.0307,-0.0301,-0.0294,-0.03,-0.0307,-0.0306,-0.0297,-0.0298,-0.0298,0,-0.0747,-0.0695,-0.0665,-0.0648,-0.0595,-0.0582,-0.0559,-0.0522,-0.0501,-0.0468,-0.0454,-0.0418,-0.0398,-0.0371,-0.0338,-0.0336,-0.0301,-0.0291,-0.0285,-0.0286,-0.0278,-0.0279,-0.0282,-0.0268,-0.0268,-0.0268,-0.0268,0,-0.0745,-0.0723,-0.0674,-0.0656,-0.063,-0.0595,-0.0571,-0.0545,-0.0513,-0.0489,-0.046,-0.0438,-0.0396,-0.0369,-0.0343,-0.0313,-0.0304,-0.0289,-0.0282,-0.0291,-0.0293,-0.0278,-0.0278,-0.0267,-0.0267,-0.0268,-0.0268,0,-0.0762,-0.0728,-0.0695,-0.0647,-0.0635,-0.0618,-0.0577,-0.0559,-0.0532,-0.0502,-0.0493,-0.0451,-0.0418,-0.0382,-0.0337,-0.0319,-0.0291,-0.0281,-0.0304,-0.03,-0.0296,-0.0297,-0.0289,-0.0286,-0.0275,-0.0275,-0.0275,0,-0.0763,-0.0746,-0.0697,-0.0679,-0.0657,-0.0629,-0.0608,-0.0572,-0.0551,-0.0508,-0.0494,-0.0459,-0.0429,-0.0377,-0.0342,-0.0307,-0.0296,-0.0296,-0.0291,-0.0301,-0.0296,-0.0297,-0.0295,-0.0298,-0.0298,-0.0298,-0.0299,0,-0.0768,-0.0752,-0.0723,-0.0688,-0.0664,-0.0634,-0.0604,-0.0591,-0.0549,-0.0527,-0.0493,-0.047,-0.0424,-0.0389,-0.0351,-0.0326,-0.0305,-0.0301,-0.0297,-0.0306,-0.032,-0.0312,-0.0308,-0.0301,-0.0301,-0.03,-0.03,-0.03,-0.0777,-0.076,-0.0723,-0.0691,-0.0665,-0.0637,-0.0617,-0.0588,-0.056,-0.052,-0.0501,-0.0467,-0.043,-0.0376,-0.0352,-0.0325,-0.0318,-0.0314,-0.0313,-0.0312,-0.0314,-0.0325,-0.0318,-0.0317,-0.0317,-0.0317,-0.0317,0,-0.078,-0.0755,-0.0726,-0.0685,-0.066,-0.0643,-0.0609,-0.0589,-0.056,-0.0528,-0.0499,-0.046,-0.0426,-0.0389,-0.0353,-0.0339,-0.0328,-0.033,-0.0331,-0.0325,-0.0322,-0.0328,-0.0339,-0.0339,-0.0339,-0.0339,-0.0339,-0.0339,-0.0779,-0.0749,-0.0729,-0.0686,-0.0661,-0.0628,-0.061,-0.0584,-0.0558,-0.0516,-0.0489,-0.0465,-0.043,-0.0392,-0.036,-0.035,-0.0338,-0.0343,-0.033,-0.0327,-0.0326,-0.0324,-0.033,-0.0341,-0.0341,-0.0335,-0.0335,-0.0335]},{"header":{"parameterUnit":"m.s-1","parameterCategory":1,"la1":30.2991,"la2":30.254,"lo1":-89.0895,"lo2":-89.0444,"dy":0.0017,"dx":0.0017,"nx":28,"ny":28,"refTime":"2023-08-08T09:00:00:Z","depth":0,"parameterNumber":3,"parameterNumberName":"V-component_of_WINDS"},"data":[0,0,0,0,0,0,0,0,0,0,0,0,0,0,0,0,0,0,0,0,0,0,0,0,0,0,0,0,0,0,0,0,0,0,0,0,0,0,0,0,0,0,0,0,0,0,0,0,0,0,0,0,0,0,0,0,0,0,6.1757,6.1756,0,6.1696,6.1695,6.1695,6.1635,6.1634,6.1633,6.1632,6.1565,6.1564,6.1563,0,0,0,0,0,0,0,0,0,0,0,0,0,6.1818,6.1817,6.1757,6.1756,6.1755,6.1696,6.1695,6.1694,6.1635,6.1634,6.1633,6.1632,6.1565,6.1564,6.1563,0,0,0,0,0,0,0,0,0,0,0,0,0,6.1778,6.1817,6.1757,6.1718,6.1714,6.1696,6.1695,6.1694,6.1635,6.1634,6.1633,6.1632,6.1566,6.1564,6.1563,6.1576,0,0,6.1558,6.1557,0,0,0,0,0,0,0,0,6.178,6.1775,6.1725,6.1721,6.1716,6.1672,6.1692,6.1654,6.1635,6.1665,6.1632,6.1631,6.1601,6.1597,6.1588,6.1573,6.157,6.1558,6.1557,6.1556,6.1556,0,0,0,0,0,0,0,6.1783,6.1778,6.1732,6.1724,6.1719,6.1703,6.1696,6.1685,6.164,6.1662,6.1658,6.1652,6.1599,6.1589,6.1586,6.1569,6.1558,6.1556,6.1555,6.1555,6.1564,6.1565,0,0,0,0,0,0,6.1792,6.178,6.1734,6.1731,6.1746,6.1703,6.1695,6.1687,6.164,6.1632,6.1653,6.1649,6.1593,6.1587,6.1583,6.1597,6.1556,6.1554,6.1554,6.1563,6.1564,6.1566,0,0,0,0,0,0,6.1794,6.1788,6.1737,6.1754,6.1747,6.1703,6.1695,6.1687,6.1677,6.1633,6.1624,6.1652,6.1591,6.1585,6.1579,6.1593,6.1554,6.1552,6.1562,6.1563,6.1565,6.1624,0,0,0,0,0,0,6.1796,6.1789,6.1795,6.1755,6.1746,6.1735,6.1696,6.1686,6.1675,6.167,6.163,6.1622,6.159,6.1582,6.1577,6.1591,6.1551,6.156,6.1562,6.1565,6.162,6.1627,6.1634,0,0,0,0,0,6.1798,6.1812,6.1795,6.179,6.1752,6.1736,6.1731,6.1695,6.1677,6.1681,6.1653,6.1623,6.1593,6.1582,6.1576,6.1589,6.1559,6.1562,6.1564,6.1617,6.1626,6.1633,0,0,0,0,0,0,6.1852,6.1806,6.1787,6.1789,6.1767,6.1726,6.173,6.1705,6.1687,6.1683,6.1638,6.1629,6.1629,6.1608,6.1596,6.1601,6.1572,6.1574,6.1614,6.1622,6.1628,6.1633,6.155,0,0,0,0,0,6.1865,6.1857,6.1816,6.1822,6.1812,6.1774,6.1765,6.1741,6.1715,6.1705,6.1677,6.1652,6.1638,6.1628,6.1612,6.1618,6.1608,6.1624,6.163,6.1636,6.1638,6.1641,6.1647,6.1575,6.1575,6.1575,0,0,6.1889,6.1863,6.1861,6.1832,6.1813,6.1805,6.1766,6.1759,6.1753,6.1704,6.1697,6.1675,6.1645,6.1646,6.1644,6.1628,6.1656,6.164,6.1644,6.1643,6.1644,6.1651,6.1657,6.1577,6.1576,6.1576,0,0,6.1931,6.1911,6.1914,6.1896,6.1868,6.1842,6.1843,6.1806,6.1791,6.1784,6.1748,6.1739,6.1714,6.1695,6.1682,6.172,6.1692,6.1716,6.1749,6.1753,6.1759,6.1763,6.1778,6.1783,6.1718,6.1718,6.1718,0,6.1965,6.1954,6.1918,6.1915,6.1903,6.1861,6.1864,6.1848,6.1815,6.1808,6.1791,6.1761,6.1737,6.1733,6.1743,6.1734,6.1733,6.172,6.1761,6.1765,6.1769,6.1783,6.1788,6.1721,6.1721,6.172,6.172,0,6.1998,6.199,6.1996,6.1968,6.1958,6.1957,6.1921,6.1915,6.1891,6.1868,6.1862,6.1833,6.1811,6.1808,6.1784,6.1802,6.1793,6.1769,6.1739,6.178,6.1792,6.1796,6.1726,6.1724,6.1724,6.1723,0,0,6.207,6.2025,6.2027,6.2015,6.1982,6.1975,6.1973,6.1954,6.195,6.1929,6.1926,6.1908,6.1887,6.1872,6.1845,6.1848,6.1882,6.1824,6.1823,6.1837,6.19,6.1919,6.1925,6.1864,6.1864,6.1865,6.1903,0,6.2106,6.2102,6.2071,6.2075,6.2068,6.2029,6.2027,6.2007,6.1985,6.1976,6.1951,6.1939,6.1912,6.1903,6.1904,6.1878,6.1894,6.1874,6.186,6.186,6.1869,6.1931,6.1949,6.1986,6.1907,6.1908,6.1909,0,6.2147,6.2132,6.2136,6.2105,6.2101,6.2101,6.2082,6.2073,6.2049,6.2033,6.2019,6.1991,6.1986,6.1959,6.1952,6.194,6.1932,6.1919,6.1919,6.1916,6.1887,6.193,6.1997,6.2003,6.1915,6.1915,6.1914,0,6.2201,6.2181,6.2181,6.2172,6.2136,6.2136,6.2121,6.2096,6.2087,6.207,6.2064,6.2047,6.2037,6.2023,6.1991,6.1974,6.1989,6.1958,6.1975,6.1976,6.1979,6.1979,6.2047,6.1975,6.1974,6.1974,6.1974,0,6.2245,6.2249,6.2205,6.2205,6.2209,6.2174,6.2178,6.2159,6.2138,6.2133,6.2098,6.2094,6.2052,6.2043,6.2018,6.2017,6.2013,6.2,6.1993,6.2003,6.2005,6.1997,6.1993,6.1976,6.1975,6.1975,6.1975,0,6.2304,6.2275,6.2273,6.224,6.2232,6.2237,6.2208,6.2206,6.2184,6.2179,6.2176,6.214,6.2128,6.2095,6.2074,6.2057,6.2064,6.205,6.2072,6.2068,6.2087,6.2086,6.2152,6.2159,6.2082,6.2083,6.2084,0,6.2334,6.2337,6.2305,6.2301,6.2288,6.228,6.2272,6.2238,6.223,6.2205,6.2207,6.2193,6.218,6.2164,6.2135,6.2119,6.2106,6.213,6.2103,6.2114,6.2107,6.2107,6.2108,6.2136,6.2137,6.2138,6.2138,0,6.2391,6.2377,6.2367,6.2353,6.2345,6.2331,6.2316,6.2314,6.2276,6.2269,6.2258,6.2249,6.2229,6.2216,6.2197,6.218,6.2153,6.2148,6.2151,6.2161,6.2174,6.2168,6.2089,6.2146,6.2145,6.2144,6.2144,6.2144,6.2436,6.2438,6.2416,6.2407,6.2393,6.238,6.2378,6.2356,6.2347,6.233,6.231,6.2301,6.2279,6.225,6.2236,6.2229,6.2214,6.2218,6.2219,6.2221,6.2226,6.2176,6.2225,6.2225,6.2224,6.2224,6.2224,0,6.2492,6.2477,6.2469,6.245,6.2443,6.242,6.2403,6.2398,6.2392,6.2374,6.2363,6.2351,6.2339,6.2311,6.2296,6.2296,6.2283,6.2293,6.2292,6.2289,6.224,6.2239,6.2303,6.2303,6.2303,6.2303,6.2303,6.2303,6.2519,6.2521,6.2505,6.25,6.2484,6.2477,6.2469,6.2458,6.2443,6.2433,6.2423,6.2406,6.2384,6.2368,6.2356,6.2348,6.2344,6.2358,6.2346,6.23,6.2292,6.2285,6.2284,6.2357,6.2357,6.2396,6.2396,6.2397]}]]